Location: Grums
(59.3529°N, 13.1129°E)
Time: 07:37:16
(UTC+02:00)

Envisat - Pass Details

Date: 27 September 2021
Orbit: 764 x 766 km, 98.2° (Epoch: 16 October)

Event Time Altitude Azimuth Distance (km) Brightness Sun altitude
Rises 19:24:31 0° 234° (SW) 3,230 7.1 -5.0°
Reaches altitude 10° 19:29:44 10° 280° (W) 2,312 7.4 -5.6°
Maximum altitude 19:30:06 10° 284° (WNW) 2,308 7.3 -5.7°
Drops below altitude 10° 19:30:28 10° 288° (WNW) 2,313 7.2 -5.7°
Sets 19:35:43 0° 334° (NNW) 3,247 6.8 -6.4°
